• In Österreich
  • Länderverzeichnis
  • Für 7 Tage
  • Wassertemperatur
  • Satellitenkarten
  • Wetterkarte
  • News
  • Widgets
  • user-avatar
    Anmelden

    Stündliche Wetter Koudougou

    Heute, 17 Februar, Samstag

    Zeit Temperatur Niederschläge Wind Luftdruck Luftfeuchtigkeit
    00:00 +30°C° 0 mm 3 m/S 732 mmHg 12%
    01:00 +29°C° 0 mm 3 m/S 732 mmHg 12%
    02:00 +28°C° 0 mm 3 m/S 732 mmHg 12%
    03:00 +28°C° 0 mm 3 m/S 731 mmHg 13%
    04:00 +27°C° 0 mm 3 m/S 731 mmHg 13%
    05:00 +27°C° 0 mm 3 m/S 731 mmHg 13%
    06:00 +27°C° 0 mm 4 m/S 731 mmHg 14%
    07:00 +29°C° 0 mm 4 m/S 731 mmHg 12%
    08:00 +32°C° 0 mm 5 m/S 732 mmHg 10%
    09:00 +34°C° 0 mm 6 m/S 732 mmHg 9%
    10:00 +37°C° 0 mm 5 m/S 732 mmHg 8%
    11:00 +40°C° 0 mm 5 m/S 732 mmHg 7%
    12:00 +41°C° 0 mm 4 m/S 731 mmHg 6%
    13:00 +42°C° 0 mm 4 m/S 731 mmHg 6%
    14:00 +42°C° 0 mm 4 m/S 730 mmHg 6%
    15:00 +43°C° 0 mm 3 m/S 730 mmHg 6%
    16:00 +42°C° 0 mm 3 m/S 730 mmHg 7%
    17:00 +39°C° 0 mm 3 m/S 729 mmHg 8%
    18:00 +38°C° 0 mm 2 m/S 729 mmHg 8%
    19:00 +36°C° 0 mm 3 m/S 730 mmHg 9%
    20:00 +35°C° 0 mm 3 m/S 730 mmHg 10%
    21:00 +33°C° 0 mm 3 m/S 730 mmHg 11%
    22:00 +31°C° 0 mm 3 m/S 730 mmHg 11%
    23:00 +31°C° 0 mm 3 m/S 730 mmHg 12%

    Morgen, 18 Februar, Sonntag

    Zeit Temperatur Niederschläge Wind Luftdruck Luftfeuchtigkeit
    00:00 +30°C° 0 mm 3 m/S 731 mmHg 12%
    01:00 +29°C° 0 mm 3 m/S 730 mmHg 12%
    02:00 +28°C° 0 mm 3 m/S 730 mmHg 13%
    03:00 +28°C° 0 mm 3 m/S 730 mmHg 13%
    04:00 +27°C° 0 mm 3 m/S 730 mmHg 13%
    05:00 +27°C° 0 mm 3 m/S 730 mmHg 13%
    06:00 +26°C° 0 mm 3 m/S 730 mmHg 13%
    07:00 +28°C° 0 mm 3 m/S 730 mmHg 12%
    08:00 +32°C° 0 mm 4 m/S 731 mmHg 10%
    09:00 +34°C° 0 mm 5 m/S 732 mmHg 8%
    10:00 +37°C° 0 mm 5 m/S 731 mmHg 7%
    11:00 +40°C° 0 mm 5 m/S 731 mmHg 7%
    12:00 +42°C° 0 mm 5 m/S 731 mmHg 6%
    13:00 +43°C° 0 mm 4 m/S 730 mmHg 6%
    14:00 +43°C° 0 mm 4 m/S 729 mmHg 6%
    15:00 +43°C° 0 mm 3 m/S 728 mmHg 6%
    16:00 +41°C° 0 mm 2 m/S 728 mmHg 7%
    17:00 +39°C° 0 mm 2 m/S 728 mmHg 8%
    18:00 +36°C° 0 mm 1 m/S 728 mmHg 8%
    19:00 +36°C° 0 mm 2 m/S 728 mmHg 9%
    20:00 +34°C° 0 mm 2 m/S 729 mmHg 10%
    21:00 +32°C° 0 mm 2 m/S 729 mmHg 11%
    22:00 +31°C° 0 mm 2 m/S 729 mmHg 11%
    23:00 +31°C° 0 mm 2 m/S 729 mmHg 11%

    übermorgen, 19 Februar, Montag

    Zeit Temperatur Niederschläge Wind Luftdruck Luftfeuchtigkeit
    00:00 +30°C° 0 mm 2 m/S 729 mmHg 12%
    01:00 +30°C° 0 mm 2 m/S 729 mmHg 12%
    02:00 +29°C° 0 mm 2 m/S 728 mmHg 13%
    03:00 +29°C° 0 mm 2 m/S 728 mmHg 13%
    04:00 +28°C° 0 mm 2 m/S 728 mmHg 15%
    05:00 +28°C° 0 mm 2 m/S 729 mmHg 16%
    06:00 +27°C° 0 mm 2 m/S 729 mmHg 17%
    07:00 +30°C° 0 mm 3 m/S 730 mmHg 20%
    08:00 +33°C° 0 mm 4 m/S 730 mmHg 23%
    09:00 +35°C° 0 mm 5 m/S 731 mmHg 26%
    10:00 +37°C° 0 mm 4 m/S 731 mmHg 26%
    11:00 +40°C° 0 mm 4 m/S 730 mmHg 26%
    12:00 +41°C° 0 mm 4 m/S 730 mmHg 26%
    13:00 +41°C° 0 mm 4 m/S 729 mmHg 25%
    14:00 +42°C° 0 mm 4 m/S 728 mmHg 24%
    15:00 +42°C° 0 mm 4 m/S 727 mmHg 23%
    16:00 +40°C° 0 mm 3 m/S 727 mmHg 25%
    17:00 +39°C° 0 mm 3 m/S 728 mmHg 26%
    18:00 +38°C° 0 mm 2 m/S 728 mmHg 28%
    19:00 +37°C° 0,1 mm 2 m/S 728 mmHg 31%
    20:00 +36°C° 0,1 mm 2 m/S 729 mmHg 34%
    21:00 +35°C° 0,1 mm 2 m/S 729 mmHg 37%
    22:00 +35°C° 0,1 mm 3 m/S 729 mmHg 40%
    23:00 +34°C° 0,1 mm 4 m/S 729 mmHg 43%

    20 Februar, Dienstag

    Zeit Temperatur Niederschläge Wind Luftdruck Luftfeuchtigkeit
    00:00 +33°C° 0,1 mm 5 m/S 729 mmHg 46%
    01:00 +33°C° 0,1 mm 5 m/S 729 mmHg 46%
    02:00 +33°C° 0,1 mm 4 m/S 728 mmHg 46%
    03:00 +33°C° 0,1 mm 3 m/S 728 mmHg 46%
    04:00 +33°C° 0 mm 3 m/S 728 mmHg 46%
    05:00 +31°C° 0 mm 3 m/S 728 mmHg 47%
    06:00 +31°C° 0 mm 3 m/S 729 mmHg 47%
    07:00 +33°C° 0 mm 4 m/S 729 mmHg 45%
    08:00 +34°C° 0 mm 5 m/S 730 mmHg 43%
    09:00 +35°C° 0 mm 5 m/S 730 mmHg 41%
    10:00 +37°C° 0 mm 5 m/S 730 mmHg 36%
    11:00 +40°C° 0 mm 5 m/S 730 mmHg 31%
    12:00 +42°C° 0 mm 4 m/S 730 mmHg 26%
    13:00 +42°C° 0 mm 4 m/S 729 mmHg 25%
    14:00 +42°C° 0 mm 3 m/S 728 mmHg 24%
    15:00 +42°C° 0 mm 3 m/S 727 mmHg 23%
    16:00 +40°C° 0 mm 3 m/S 727 mmHg 24%
    17:00 +40°C° 0 mm 2 m/S 727 mmHg 25%
    18:00 +40°C° 0 mm 2 m/S 727 mmHg 25%
    19:00 +39°C° 0 mm 2 m/S 728 mmHg 27%
    20:00 +38°C° 0 mm 3 m/S 728 mmHg 30%
    21:00 +37°C° 0 mm 3 m/S 729 mmHg 32%
    22:00 +36°C° 0 mm 3 m/S 729 mmHg 33%
    23:00 +36°C° 0 mm 2 m/S 729 mmHg 34%

    21 Februar, Mittwoch

    Zeit Temperatur Niederschläge Wind Luftdruck Luftfeuchtigkeit
    00:00 +36°C° 0 mm 2 m/S 729 mmHg 35%
    01:00 +35°C° 0,2 mm 2 m/S 728 mmHg 37%
    02:00 +35°C° 0,2 mm 2 m/S 728 mmHg 39%
    03:00 +34°C° 0,2 mm 2 m/S 728 mmHg 41%
    04:00 +32°C° 0,4 mm 2 m/S 728 mmHg 43%
    05:00 +31°C° 0,4 mm 2 m/S 728 mmHg 45%
    06:00 +31°C° 0,4 mm 3 m/S 728 mmHg 47%
    07:00 +33°C° 0 mm 4 m/S 729 mmHg 44%
    08:00 +34°C° 0 mm 5 m/S 729 mmHg 42%
    09:00 +35°C° 0 mm 6 m/S 730 mmHg 39%
    10:00 +37°C° 0 mm 5 m/S 730 mmHg 34%
    11:00 +40°C° 0 mm 5 m/S 729 mmHg 29%
    12:00 +41°C° 0 mm 5 m/S 729 mmHg 24%
    13:00 +42°C° 0 mm 5 m/S 728 mmHg 22%
    14:00 +42°C° 0 mm 4 m/S 727 mmHg 20%
    15:00 +43°C° 0 mm 4 m/S 726 mmHg 18%
    16:00 +42°C° 0 mm 4 m/S 726 mmHg 19%
    17:00 +42°C° 0 mm 3 m/S 726 mmHg 19%
    18:00 +40°C° 0 mm 3 m/S 727 mmHg 20%
    19:00 +39°C° 0 mm 2 m/S 727 mmHg 20%
    20:00 +38°C° 0 mm 2 m/S 727 mmHg 21%
    21:00 +37°C° 0 mm 2 m/S 728 mmHg 21%
    22:00 +36°C° 0 mm 2 m/S 728 mmHg 22%
    23:00 +34°C° 0 mm 1 m/S 728 mmHg 22%

    22 Februar, Donnerstag

    Zeit Temperatur Niederschläge Wind Luftdruck Luftfeuchtigkeit
    00:00 +33°C° 0 mm 1 m/S 728 mmHg 23%
    01:00 +32°C° 0,1 mm 1 m/S 727 mmHg 25%
    02:00 +31°C° 0,1 mm 1 m/S 727 mmHg 26%
    03:00 +31°C° 0,1 mm 1 m/S 726 mmHg 28%
    04:00 +30°C° 0 mm 1 m/S 727 mmHg 30%
    05:00 +30°C° 0 mm 1 m/S 727 mmHg 32%
    06:00 +30°C° 0 mm 2 m/S 727 mmHg 33%
    07:00 +33°C° 0 mm 3 m/S 728 mmHg 32%
    08:00 +34°C° 0 mm 4 m/S 728 mmHg 31%
    09:00 +36°C° 0 mm 5 m/S 729 mmHg 30%
    10:00 +37°C° 0 mm 5 m/S 728 mmHg 28%
    11:00 +40°C° 0 mm 5 m/S 728 mmHg 26%
    12:00 +41°C° 0 mm 5 m/S 728 mmHg 25%
    13:00 +41°C° 0 mm 5 m/S 727 mmHg 23%
    14:00 +41°C° 0 mm 4 m/S 726 mmHg 22%
    15:00 +42°C° 0 mm 4 m/S 726 mmHg 21%
    16:00 +41°C° 0 mm 4 m/S 726 mmHg 22%
    17:00 +41°C° 0 mm 4 m/S 726 mmHg 24%
    18:00 +39°C° 0 mm 3 m/S 726 mmHg 25%
    19:00 +38°C° 0 mm 3 m/S 727 mmHg 27%
    20:00 +37°C° 0 mm 3 m/S 727 mmHg 29%
    21:00 +36°C° 0 mm 3 m/S 728 mmHg 31%
    22:00 +36°C° 0 mm 2 m/S 728 mmHg 32%
    23:00 +35°C° 0 mm 2 m/S 727 mmHg 33%
    Mehr zeigen